Location: Blue Mountain Vista Observatory
(40.6992°N, 75.9422°W)
Time: 16:20:41
(UTC-04:00)

IDEFIX/ARIANE 42P - Visible Passes

Search period start: 05 May 2015 00:00
Search period end: 15 May 2015 00:00
Orbit: 785 x 803 km, 98.3° (Epoch: 04 May)

Date Brightness Start Highest point End Pass type
(mag) Time Alt. Az. Time Alt. Az. Time Alt. Az.
05 May 5.3 21:38:00 10° WSW 21:40:30 13° W 21:42:41 10° WNW visible
06 May 4.8 21:07:38 10° SSW 21:11:51 24° W 21:16:00 10° NW visible
07 May 3.8 20:38:27 10° S 20:43:23 44° W 20:48:21 10° NNW visible
09 May 5.1 21:23:25 10° SW 21:26:55 18° W 21:30:14 10° NW visible
10 May 4.4 20:53:44 10° SSW 20:58:22 32° W 21:02:58 10° NNW visible
12 May 5.4 21:39:49 10° WSW 21:42:02 12° W 21:43:57 10° WNW visible
13 May 4.9 21:09:15 10° SW 21:13:23 23° W 21:17:26 10° NW visible
14 May 3.9 20:40:00 10° S 20:44:54 42° W 20:49:50 10° NNW visible
